Regional Weather Roundup
Issued by NWS Green Bay, WI

Home | Current Version | Previous Version | Graphics & Text | Print | Product List | Glossary Off
Versions: 1 2 3 4 5 6 7 8 9 10 11 12 13 14 15 16 17 18 19 20 21 22 23 24 25 26 27 28 29 30 31 32 33 34 35 36 37 38 39 40 41 42 43 44 45 46 47 48 49 50

900
ASUS43 KGRB 050300
RWRGRB

NORTH-CENTRAL AND NORTHEAST WISCONSIN REGIONAL WEATHER ROUNDUP
NATIONAL WEATHER SERVICE GREEN BAY WI
900 PM CST SUN DEC 04 2016

WIZ005-009-010>012-018-019-050400-
NORTH CENTRAL WISCONSIN

CITY           SKY/WX    TMP DP  RH WIND       PRES   REMARKS
IRONWOOD       FLURRIES  31  29  92 S9        29.67F
MANITOWISH WTR NOT AVBL
ARBOR VITAE    NOT AVBL
EAGLE RIVER    NOT AVBL
LAND O LAKES   NOT AVBL
RHINELANDER    CLOUDY    30  30 100 SW7       29.70F FOG
PHILLIPS       NOT AVBL
ANTIGO         NOT AVBL
TOMAHAWK       NOT AVBL
MERRILL        NOT AVBL
$$

WIZ013-073-050400-
NORTHEAST WISCONSIN

CITY           SKY/WX    TMP DP  RH WIND       PRES   REMARKS
IRON MOUNTAIN  LGT SNOW  30  27  88 S6        29.72F FOG
MARINETTE      LGT SNOW  32  31  96 SW7       29.79F FOG
$$

WIZ017-030-035>037-045-050400-
CENTRAL WISCONSIN

CITY           SKY/WX    TMP DP  RH WIND       PRES   REMARKS
MEDFORD        NOT AVBL
WAUSAU         CLOUDY    31  30  96 S7        29.73F FOG
MOSINEE        NOT AVBL
MARSHFIELD     CLOUDY    31  30  96 SW10      29.74F
WISC RAPIDS    CLOUDY    32  31  96 SW9       29.78F
STEVENS POINT  NOT AVBL
WAUPACA        NOT AVBL
SHAWANO        NOT AVBL
CLINTONVILLE   NOT AVBL
WAUTOMA        MIX PCPN  31  30  96 SW7       29.82S FOG
$$

WIZ038-039-048-051-050400-
FOX VALLEY

CITY           SKY/WX    TMP DP  RH WIND       PRES   REMARKS
NWS GREEN BAY  CLOUDY    34  32  92 SW10      29.80F
APPLETON       CLOUDY    30  30 100 SW9       29.79F
OSHKOSH        CLOUDY    31  28  89 SW8       29.81S
FOND DU LAC    CLOUDY    32  28  85 SW8       29.82F
$$

WIZ022-050-052-050400-
EAST CENTRAL WISCONSIN

CITY           SKY/WX    TMP DP  RH WIND       PRES   REMARKS
EPHRAIM        NOT AVBL
WASHINGTON ISL NOT AVBL
STURGEON BAY   LGT SNOW  32  31  96 SW8       29.79F FOG
MANITOWOC      NOT AVBL
SHEBOYGAN      CLOUDY    31  29  92 SW8       29.81F FOG
$$

LMZ563-521-522-541>543-050400-
LAKESHORE

STATION/POSITION TIME  TEMP    WIND        PRES    VSBY  WAVE
                       AIR SEA DIR/SP/G                  HT/PER
                 (UTC) (F)     (DEG/KT/KT) (MB)    (MI)  (FT/S)
SHEBOYGAN LKSHOR 0200   33     230/ 10/ 11 1010.7F
KEWAUNEE LKSHORE 0230   33     220/  5/  8 1009.1F
ALGOMA MARINA    0221          240/  6/  9   N/A
NORTHPORT PIER   0240   33     190/  2/  4 1008.8F
SISTER BAY LKSHO 0153   33        CALM       N/A
CHAMBERS ISLAND  0240   34     190/  5/ 12 1008.5F
MENOMINEE LKSHOR 0230   33     200/  5/  7 1008.1F
$$




USA.gov is the U.S. government's official web portal to all federal, state and local government web resources and services.